DUCHIFAT-1
1 40021U 14033M 17095.83038678 .00000853 00000-0 94729-4 0 9994
2 40021 097.9217 008.8831 0013014 173.2077 186.9319 14.89794302151829
NANOSATCBR1
1 40024U 14033Q 17095.86719943 .00000574 00000-0 66747-4 0 9990
2 40024 097.9180 007.9191 0012328 173.5064 186.6314 14.89132546151262
EO-79
1 40025U 14033R 17095.80841116 .00000516 00000-0 61799-4 0 9991
2 40025 097.9165 007.0068 0012466 176.5325 183.5980 14.88352556151210
DTUSAT-2
1 40030U 14033W 17095.72811742 .00000494 00000-0 59922-4 0 9990
2 40030 097.9132 006.1129 0012051 170.7906 189.3534 14.87977146151675
EO-80
1 40032U 14033Y 17095.90165489 .00000496 00000-0 60243-4 0 9992
2 40032 097.9140 006.2932 0012025 170.6980 189.4461 14.87911497151173
ANTELSAT
1 40034U 14033AA 17095.63205328 .00000355 00000-0 60616-4 0 9999
2 40034 097.8694 341.7734 0059331 164.8883 195.4115 14.73644560149701
VELOX-1
1 40057U 14034E 17095.81454636 .00000568 00000-0 88035-4 0 9994
2 40057 098.1847 194.9618 0009531 292.6441 067.3742 14.77051454149077
DAURIA DX 1
1 40071U 14037C 17095.77185770 .00000256 00000-0 40525-4 0 9994
2 40071 098.3298 203.9951 0007046 289.7267 070.3186 14.80983722148259
UKUBE-1
1 40074U 14037F 17095.91865325 .00000641 00000-0 85234-4 0 9998
2 40074 098.3376 207.6296 0003179 292.2742 067.8095 14.83428964148460
HODOYOSHI-1
1 40299U 14070B 17095.95045817 .00001254 00000-0 57720-4 0 9994
2 40299 097.4051 179.7859 0013169 354.0837 122.0974 15.22105943133956
CHUBUSAT-1
1 40300U 14070C 17095.78861513 .00001302 00000-0 62110-4 0 9990
2 40300 097.3982 177.0035 0020681 000.2790 148.2034 15.20690861133787
QSAT-EOS
1 40301U 14070D 17095.80020880 .00002901 00000-0 12573-3 0 9991
2 40301 097.3917 176.8820 0027857 355.5985 120.6110 15.22842263133819
FIREBIRD FU3
1 40377U 15003B 17095.76174352 .00004888 00000-0 21245-3 0 9992
2 40377 099.1181 265.3163 0136772 242.0383 116.6945 15.14847392120038
FIREBIRD FU4
1 40378U 15003C 17095.95314013 .00004870 00000-0 21137-3 0 9995
2 40378 099.1184 265.5777 0136991 241.3129 117.4271 15.14868504120060
GRIFEX
1 40379U 15003D 17095.75745538 .00003482 00000-0 16085-3 0 9998
2 40379 099.1195 263.4261 0142330 248.6957 109.9023 15.12553463119939
NO-84
1 40654U 15025D 17096.38552758 .00011879 00000-0 22155-3 0 04111
2 40654 054.9928 197.2360 0188662 085.6260 276.6273 15.32232195068880
NO-83
1 40655U 15025E 17095.80233030 .00020031 00000-0 30977-3 0 04578
2 40655 054.9802 180.0062 0159404 095.0289 266.8975 15.40926401069058
DEORBITSAIL
1 40719U 15032E 17095.92428458 .00000679 00000-0 10599-3 0 9995
2 40719 097.9885 350.5567 0017282 020.3881 339.8015 14.75969727093662
NUDT-PHONESAT
1 40900U 15049B 17095.91641265 .00004114 00000-0 19953-3 0 9998
2 40900 097.4450 104.8821 0016004 115.0170 245.2728 15.18952407085481
XW-2A
1 40903U 15049E 17095.92862633 .00003568 00000-0 96327-4 0 9999
2 40903 097.4281 120.7359 0015739 159.1293 201.0598 15.38335796086538
XW-2C
1 40906U 15049H 17095.95807865 .00001402 00000-0 79767-4 0 9995
2 40906 097.4558 102.8978 0017038 103.3958 256.9174 15.14375988085303
XW-2D
1 40907U 15049J 17095.94615545 .00001484 00000-0 83992-4 0 9992
2 40907 097.4527 102.6672 0016411 101.7465 258.5609 15.14468378085305
LILACSAT-2
1 40908U 15049K 17095.93839745 .00000807 00000-0 49176-4 0 9996
2 40908 097.4629 102.5011 0017901 099.7423 260.5831 15.13020501085244
XW-2F
1 40910U 15049M 17095.92264877 .00002029 00000-0 11100-3 0 9999
2 40910 097.4550 103.2153 0017360 100.1912 260.1279 15.15273193085335
XW-2B
1 40911U 15049N 17095.95053679 .00001452 00000-0 82340-4 0 9993
2 40911 097.4571 103.0103 0016307 102.0455 258.2605 15.14434489085208
DCBB
1 40912U 15049P 17095.82288285 .00002542 00000-0 13031-3 0 9994
2 40912 097.4527 104.7493 0017791 093.8606 030.8301 15.17344534085316
TW-1C
1 40926U 15051B 17095.91979257 .00010645 00000-0 25487-3 0 9999
2 40926 097.2387 136.0632 0014042 075.0698 047.8474 15.41517536085786
TW-1A
1 40928U 15051D 17095.77084442 .00005369 00000-0 15737-3 0 9992
2 40928 097.2359 132.8835 0015051 097.7973 013.0806 15.35503068085584
IO-86
1 40931U 15052B 17095.22622232 .00000535 00000-0 -14654-4 0 9991
2 40931 006.0008 032.9120 0013356 292.7953 067.0867 14.76518326082169
GomX-3
1 40949U 98067HA 16292.18357804 .08527750 12374-4 77882-3 0 9992
2 40949 51.6055 106.7696 0006699 286.1344 73.8944 16.38002265 59645
LQSat
1 40958U 15057A 17095.83304143 .00000076 00000-0 19600-4 0 9995
2 40958 097.9814 172.3994 0016937 300.7804 059.1721 14.72953119080464
AO-85
1 40967U 15058D 17096.45549750 .00000279 00000-0 51537-4 0 04478
2 40967 064.7744 076.4512 0172905 104.6847 257.3494 14.75363333066531
ATHENOXAT-1
1 41168U 15077C 17095.28664646 .00003453 00000-0 15989-3 0 9994
2 41168 014.9851 341.8996 0012631 084.4066 036.8708 15.11312864071991
ChubuSat-2
1 41338U 16012B 17095.73845842 .00000624 00000-0 42565-4 0 9990
2 41338 031.0028 212.3698 0013916 061.8842 298.3199 14.99687906062104
ChubuSat-3
1 41339U 16012C 17095.74322975 .00000698 00000-0 48126-4 0 9999
2 41339 031.0103 211.5992 0013577 067.3542 292.8531 14.99897778062084
Horyu-4
1 41340U 16012D 17095.68095370 .00000962 00000-0 67735-4 0 9991
2 41340 031.0046 209.9631 0014207 075.4531 284.7679 15.00506974062117
OUFTI-1
1 41458U 16025C 17095.87842445 .00002175 00000-0 12033-3 0 9997
2 41458 098.1948 129.3092 0176280 170.4637 190.0010 15.02802236051726
e-st@r-II
1 41459U 16025D 17095.89246526 .00002988 00000-0 16356-3 0 9992
2 41459 098.1950 129.2811 0177108 171.0201 189.4265 15.02678295051711
AAUSAT4
1 41460U 16025E 17095.86300157 .00002494 00000-0 13825-3 0 9992
2 41460 098.1847 129.3205 0169548 169.4614 191.0245 15.03404840051726
MinXSS
1 41474U 98067HU 17095.93825137 .00255921 00000-0 81496-3 0 9995
2 41474 051.6472 006.7597 0004294 178.8856 181.2160 15.89899232050889
CADRE
1 41475U 98067HV 17003.74787607 .12518598 12537-4 55989-3 0 9998
2 41475 51.6110 110.0165 0004040 312.3134 47.7551 16.43344525 36494
NODES 1
1 41477U 98067HX 17095.95357348 .00055543 00000-0 38174-3 0 9997
2 41477 051.6348 016.5439 0003719 144.5687 215.5559 15.74101814050666
NODES 2
1 41478U 98067HY 17095.91325090 .00053622 00000-0 37366-3 0 9991
2 41478 051.6349 017.0239 0003658 144.4199 215.7044 15.73795259050652
LO-87
1 41557U 16033B 17095.86102879 .00002546 00000-0 99481-4 0 9990
2 41557 097.4664 175.3798 0012790 261.3427 098.6363 15.26750867047399
NuSat2
1 41558U 16033C 17095.88811983 .00002558 00000-0 10032-3 0 9993
2 41558 097.4691 175.4483 0012287 259.6759 100.3095 15.26629669047399
Lapan A3
1 41603U 16040E 17095.80328316 .00000259 00000-0 15519-4 0 9999
2 41603 097.4686 158.6191 0012826 334.0713 162.6757 15.19299454043669
Swayam
1 41607U 16040J 17095.94264926 .00002834 00000-0 13277-3 0 9993
2 41607 097.4681 158.9181 0013544 335.0216 025.0362 15.20454447043624
Pratham
1 41783U 16059A 17095.72386492 .00000113 00000-0 31452-4 0 9991
2 41783 098.1749 157.8173 0034209 030.2105 330.1060 14.62818850028000
AlSat 1N
1 41789U 16059G 17095.84052014 .00000152 00000-0 38215-4 0 9997
2 41789 098.1753 158.2948 0028980 025.2454 335.0146 14.64025245028027
ScatSat
1 41790U 16059H 17095.95023525 .00000042 00000-0 21671-4 0 9992
2 41790 098.0740 149.0220 0011456 016.9552 343.2024 14.50100419027792
TY-1
1 41844U 16066D 17095.89137766 .00001621 00000-0 74169-4 0 9990
2 41844 097.4072 104.1471 0017568 127.6415 325.7156 15.21835131022343
